Location: Lombard
(41.8800°N, 88.0080°W)
Time: 09:51:20
(UTC-06:00)

S-56A Canister/Altair - Visible Passes

Search period start: 29 January 2023 00:00
Search period end: 08 February 2023 00:00
Orbit: 639 x 2493 km, 38.9° (Epoch: 28 January)

Date Brightness Start Highest point End Pass type
(mag) Time Alt. Az. Time Alt. Az. Time Alt. Az.
29 Jan 10.9 18:28:19 10° W 18:36:21 30° SSW 18:46:57 10° SSE visible
30 Jan 10.8 17:55:31 10° W 18:03:14 32° SSW 18:13:42 10° SSE visible
31 Jan 10.7 17:22:48 10° W 17:30:10 34° SSW 17:40:24 10° SSE visible
31 Jan 11.7 19:31:28 10° WSW 19:34:43 12° SW 19:38:14 10° SSW visible
01 Feb 11.7 18:57:28 10° WSW 19:01:39 13° SW 19:06:22 10° SSW visible
02 Feb 11.6 18:23:58 10° WSW 18:28:37 14° SW 18:34:03 10° S visible
03 Feb 11.6 17:50:44 10° WSW 17:55:37 16° SW 18:01:28 10° S visible
